| time (UTC) | temp C | wind direction | speed KPH | gust KPH | rain 1hr cm | rain 24hr cm | rain mn cm | humidity % | barometer mb |
| 20260506103505 | 11 | 178 | 4.8 | 14.5 | 0.00 | 0.00 | 0.00 | 86 | 1017.0 |
| 20260506103004 | 11 | 206 | 3.2 | 12.9 | 0.00 | 0.00 | 0.00 | 86 | 1017.0 |
| 20260506102504 | 11 | 135 | 6.4 | 14.5 | 0.00 | 0.00 | 0.00 | 86 | 1016.9 |
| 20260506102006 | 11 | 157 | 8.0 | 14.5 | 0.00 | 0.00 | 0.00 | 86 | 1016.9 |
| 20260506101006 | 11 | 115 | 6.4 | 14.5 | 0.00 | 0.00 | 0.00 | 86 | 1016.7 |
| 20260506100506 | 11 | 89 | 4.8 | 11.3 | 0.00 | 0.00 | 0.00 | 85 | 1016.6 |
| 20260506100005 | 11 | 140 | 4.8 | 16.1 | 0.00 | 0.00 | 0.00 | 85 | 1016.6 |
| 20260506095500 | 11 | 117 | 8.0 | 17.7 | 0.00 | 0.00 | 0.00 | 85 | 1016.6 |
| 20260506095004 | 11 | 130 | 6.4 | 17.7 | 0.00 | 0.00 | 0.00 | 85 | 1016.5 |
| 20260506094504 | 11 | 135 | 6.4 | 14.5 | 0.00 | 0.00 | 0.00 | 85 | 1016.5 |
| 20260506094004 | 11 | 216 | 4.8 | 14.5 | 0.00 | 0.00 | 0.00 | 85 | 1016.5 |
| 20260506093504 | 11 | 131 | 4.8 | 16.1 | 0.00 | 0.00 | 0.00 | 85 | 1016.5 |
| 20260506093005 | 11 | 114 | 4.8 | 16.1 | 0.00 | 0.00 | 0.00 | 85 | 1016.4 |
| 20260506092501 | 11 | 163 | 4.8 | 12.9 | 0.00 | 0.00 | 0.00 | 85 | 1016.4 |
| 20260506092005 | 11 | 135 | 3.2 | 12.9 | 0.00 | 0.00 | 0.00 | 85 | 1016.3 |
| 20260506091504 | 11 | 126 | 4.8 | 11.3 | 0.00 | 0.00 | 0.00 | 85 | 1016.3 |
| 20260506091004 | 11 | 173 | 4.8 | 14.5 | 0.00 | 0.00 | 0.00 | 85 | 1016.3 |
| 20260506090503 | 11 | 157 | 6.4 | 14.5 | 0.00 | 0.00 | 0.00 | 85 | 1016.3 |
| 20260506090006 | 11 | 178 | 3.2 | 14.5 | 0.00 | 0.00 | 0.00 | 85 | 1016.3 |
| 20260506085505 | 11 | 197 | 6.4 | 14.5 | 0.00 | 0.00 | 0.00 | 84 | 1016.2 |
| 20260506085005 | 11 | 152 | 6.4 | 14.5 | 0.00 | 0.00 | 0.00 | 84 | 1016.2 |
| 20260506084506 | 11 | 193 | 3.2 | 14.5 | 0.00 | 0.00 | 0.00 | 84 | 1016.2 |
| 20260506084005 | 12 | 203 | 4.8 | 14.5 | 0.00 | 0.00 | 0.00 | 84 | 1016.2 |
| 20260506083504 | 12 | 110 | 4.8 | 19.3 | 0.00 | 0.00 | 0.00 | 84 | 1016.2 |
| 20260506083006 | 12 | 161 | 8.0 | 19.3 | 0.00 | 0.00 | 0.00 | 84 | 1016.1 |
| 20260506082505 | 12 | 117 | 4.8 | 17.7 | 0.00 | 0.00 | 0.00 | 84 | 1016.1 |
| 20260506082006 | 12 | 128 | 8.0 | 17.7 | 0.00 | 0.00 | 0.00 | 84 | 1016.1 |
| 20260506081506 | 12 | 127 | 4.8 | 14.5 | 0.00 | 0.00 | 0.00 | 84 | 1016.0 |
| 20260506081006 | 12 | 143 | 4.8 | 11.3 | 0.00 | 0.00 | 0.00 | 84 | 1016.0 |
| 20260506080504 | 12 | 161 | 6.4 | 11.3 | 0.00 | 0.00 | 0.00 | 84 | 1016.0 |
| 20260506072506 | 12 | 223 | 3.2 | 12.9 | 0.00 | 0.00 | 0.00 | 83 | 1015.7 |
| 20260506072005 | 12 | 220 | 6.4 | 14.5 | 0.00 | 0.00 | 0.00 | 83 | 1015.7 |
| 20260506071005 | 12 | 124 | 6.4 | 12.9 | 0.00 | 0.00 | 0.00 | 82 | 1015.7 |
| 20260506070505 | 12 | 124 | 6.4 | 12.9 | 0.00 | 0.00 | 0.00 | 82 | 1015.6 |
| 20260506061506 | 13 | 140 | 4.8 | 12.9 | 0.00 | 0.00 | 0.00 | 81 | 1015.5 |
| 20260506060505 | 13 | 100 | 6.4 | 19.3 | 0.00 | 0.00 | 0.00 | 81 | 1015.5 |
| 20260506050506 | 13 | 142 | 6.4 | 14.5 | 0.00 | 0.00 | 0.00 | 79 | 1015.3 |
| 20260506044507 | 13 | 137 | 4.8 | 9.7 | 0.00 | 0.00 | 0.00 | 79 | 1015.2 |
| 20260506044009 | 13 | 178 | 3.2 | 11.3 | 0.00 | 0.00 | 0.00 | 78 | 1015.0 |
| 20260506043505 | 13 | 140 | 3.2 | 8.0 | 0.00 | 0.00 | 0.00 | 79 | 1015.0 |
| 20260506043007 | 13 | 122 | 3.2 | 14.5 | 0.00 | 0.00 | 0.00 | 79 | 1014.9 |
| 20260506042505 | 13 | 145 | 247.8 | 1054.1 | 8.41 | 0.00 | 0.00 | 78 | |
| 20260506041506 | 14 | 164 | 4.8 | 19.3 | 0.00 | 0.00 | 0.00 | 78 | 1014.8 |
| 20260506041006 | 14 | 119 | 8.0 | 19.3 | 0.00 | 0.00 | 0.00 | 78 | 1014.8 |
| 20260506040505 | 14 | 167 | 4.8 | 11.3 | 0.00 | 0.00 | 0.00 | 78 | 1014.7 |
| 20260506035007 | 14 | 114 | 4.8 | 12.9 | 0.00 | 0.00 | 0.00 | 77 | 1014.5 |
| 20260506034506 | 14 | 142 | 4.8 | 12.9 | 0.00 | 0.00 | 0.00 | 78 | 1014.4 |
| 20260506034005 | 14 | 161 | 6.4 | 11.3 | 0.00 | 0.00 | 0.00 | 78 | 1014.5 |
| 20260506033505 | 14 | 145 | 4.8 | 12.9 | 0.00 | 0.00 | 0.00 | 78 | 1014.5 |
| 20260506033008 | 14 | 234 | 6.4 | 12.9 | 0.00 | 0.00 | 0.00 | 78 | 1014.4 |
| 20260506032506 | 14 | 165 | 6.4 | 14.5 | 0.00 | 0.00 | 0.00 | 78 | 1014.3 |
| 20260506032007 | 14 | 130 | 6.4 | 19.3 | 0.00 | 0.00 | 0.00 | 78 | 1014.3 |
| 20260506031506 | 14 | 125 | 6.4 | 19.3 | 0.00 | 0.00 | 0.00 | 78 | 1014.2 |
| 20260506031006 | 14 | 56 | 6.4 | 20.9 | 0.00 | 0.00 | 0.00 | 78 | 1014.2 |
| 20260506030505 | 14 | 143 | 8.0 | 20.9 | 0.00 | 0.00 | 0.00 | 78 | 1014.2 |
| 20260506030006 | 14 | 128 | 6.4 | 16.1 | 0.00 | 0.00 | 0.00 | 79 | 1014.1 |
| 20260506025004 | 14 | 140 | 6.4 | 20.9 | 0.00 | 0.00 | 0.00 | 78 | 1014.1 |
| 20260506024505 | 14 | 148 | 6.4 | 14.5 | 0.00 | 0.00 | 0.00 | 78 | 1014.2 |
| 20260506023504 | 14 | 124 | 6.4 | 14.5 | 0.00 | 0.00 | 0.00 | 78 | 1014.1 |
| 20260506023005 | 14 | 137 | 6.4 | 14.5 | 0.00 | 0.00 | 0.00 | 78 | 1014.2 |
| 20260506022005 | 15 | 223 | 4.8 | 16.1 | 0.00 | 0.00 | 0.00 | 78 | 1014.2 |
| 20260506021506 | 15 | 139 | 6.4 | 12.9 | 0.00 | 0.00 | 0.00 | 78 | 1014.2 |
| 20260506021005 | 15 | 198 | 4.8 | 12.9 | 0.00 | 0.00 | 0.00 | 78 | 1014.2 |
| 20260506020505 | 15 | 115 | 4.8 | 16.1 | 0.00 | 0.00 | 0.00 | 78 | 1014.3 |
| 20260506020006 | 15 | 120 | 4.8 | 16.1 | 0.00 | 0.00 | 0.00 | 78 | 1014.3 |
| 20260506015005 | 15 | 119 | 4.8 | 16.1 | 0.00 | 0.00 | 0.00 | 78 | 1014.2 |
| 20260506014507 | 15 | 167 | 6.4 | 16.1 | 0.00 | 0.00 | 0.00 | 77 | 1014.3 |
| 20260506014006 | 15 | 110 | 6.4 | 16.1 | 0.00 | 0.00 | 0.00 | 76 | 1014.2 |
| 20260506013504 | 15 | 207 | 6.4 | 16.1 | 0.00 | 0.00 | 0.00 | 75 | 1014.3 |
| 20260506013006 | 16 | 126 | 6.4 | 14.5 | 0.00 | 0.00 | 0.00 | 75 | 1014.3 |
| 20260506012505 | 16 | 186 | 4.8 | 12.9 | 0.00 | 0.00 | 0.00 | 75 | 1014.2 |
| 20260506012006 | 16 | 230 | 4.8 | 12.9 | 0.00 | 0.00 | 0.00 | 75 | 1014.3 |
| 20260506011506 | 16 | 105 | 3.2 | 14.5 | 0.00 | 0.00 | 0.00 | 75 | 1014.2 |
| 20260506011006 | 16 | 135 | 6.4 | 16.1 | 0.00 | 0.00 | 0.00 | 74 | 1014.2 |
| 20260506010506 | 16 | 258 | 4.8 | 16.1 | 0.00 | 0.00 | 0.00 | 74 | 1014.3 |
| 20260506005005 | 16 | 110 | 4.8 | 17.7 | 0.00 | 0.00 | 0.00 | 73 | 1014.3 |
| 20260506004506 | 17 | 146 | 6.4 | 14.5 | 0.00 | 0.00 | 0.00 | 72 | 1014.3 |
| 20260506004005 | 17 | 149 | 4.8 | 9.7 | 0.00 | 0.00 | 0.00 | 72 | 1014.2 |
| 20260506003506 | 17 | 336 | 4.8 | 11.3 | 0.00 | 0.00 | 0.00 | 74 | 1014.2 |
| 20260506003007 | 16 | 223 | 4.8 | 11.3 | 0.00 | 0.00 | 0.00 | 73 | 1014.3 |
| 20260506002505 | 16 | 72 | 4.8 | 24.1 | 0.00 | 0.00 | 0.00 | 72 | 1014.4 |
| 20260506002006 | 16 | 171 | 4.8 | 24.1 | 0.00 | 0.00 | 0.00 | 73 | 1014.4 |
| 20260506001004 | 16 | 135 | 4.8 | 14.5 | 0.00 | 0.00 | 0.00 | 74 | 1014.5 |
| 20260506000505 | 16 | 215 | 4.8 | 14.5 | 0.00 | 0.00 | 0.00 | 75 | 1014.6 |
| 20260505235005 | 16 | 139 | 6.4 | 17.7 | 0.00 | 0.00 | 0.00 | 76 | 1014.7 |
| 20260505234505 | 16 | 127 | 9.7 | 17.7 | 0.00 | 0.00 | 0.00 | 75 | 1014.8 |
| 20260505234005 | 16 | 238 | 8.0 | 16.1 | 0.00 | 0.00 | 0.00 | 75 | 1014.7 |
| 20260505233006 | 16 | 178 | 6.4 | 12.9 | 0.00 | 0.00 | 0.00 | 75 | 1014.9 |
| 20260505232505 | 16 | 223 | 6.4 | 17.7 | 0.00 | 0.00 | 0.00 | 74 | 1015.0 |
| 20260505232006 | 16 | 333 | 4.8 | 17.7 | 0.00 | 0.00 | 0.00 | 74 | 1015.0 |
| 20260505231005 | 16 | 216 | 3.2 | 16.1 | 0.00 | 0.00 | 0.00 | 74 | 1015.0 |
| 20260505230505 | 16 | 296 | 6.4 | 17.7 | 0.00 | 0.00 | 0.00 | 76 | 1015.1 |
| 20260505230006 | 16 | 221 | 4.8 | 17.7 | 0.00 | 0.00 | 0.00 | 75 | 1015.2 |
| 20260505225505 | 16 | 303 | 6.4 | 19.3 | 0.00 | 0.00 | 0.00 | 77 | 1015.1 |
| 20260505225006 | 16 | 274 | 8.0 | 22.5 | 0.00 | 0.00 | 0.00 | 75 | 1015.3 |
| 20260505224506 | 16 | 20 | 8.0 | 22.5 | 0.00 | 0.00 | 0.00 | 76 | 1015.3 |
| 20260505224005 | 16 | 206 | 4.8 | 19.3 | 0.00 | 0.00 | 0.00 | 76 | 1015.4 |
| 20260505223505 | 16 | 150 | 6.4 | 14.5 | 0.00 | 0.00 | 0.00 | 75 | 1015.5 |
| 20260505223007 | 16 | 124 | 6.4 | 14.5 | 0.00 | 0.00 | 0.00 | 77 | 1015.5 |
| 20260505222507 | 16 | 289 | 6.4 | 22.5 | 0.00 | 0.00 | 0.00 | 76 | 1015.6 |
| 20260505222005 | 16 | 277 | 4.8 | 22.5 | 0.00 | 0.00 | 0.00 | 76 | 1015.5 |
| 20260505221506 | 16 | 135 | 4.8 | 37.0 | 0.00 | 0.00 | 0.00 | 76 | 1015.6 |
| 20260505220505 | 16 | 46 | 6.4 | 19.3 | 0.00 | 0.00 | 0.00 | 76 | 1015.6 |
| 20260505220007 | 16 | 245 | 8.0 | 19.3 | 0.00 | 0.00 | 0.00 | 76 | 1015.6 |
| 20260505215506 | 16 | 276 | 6.4 | 17.7 | 0.00 | 0.00 | 0.00 | 77 | 1015.6 |
| 20260505215005 | 16 | 174 | 6.4 | 17.7 | 0.00 | 0.00 | 0.00 | 75 | 1015.7 |
| 20260505214506 | 16 | 28 | 4.8 | 17.7 | 0.00 | 0.00 | 0.00 | 77 | 1015.6 |
| 20260505214006 | 16 | 287 | 6.4 | 19.3 | 0.00 | 0.00 | 0.00 | 76 | 1015.6 |
| 20260505213006 | 16 | 215 | 6.4 | 16.1 | 0.00 | 0.00 | 0.00 | 76 | 1015.7 |
| 20260505212506 | 16 | 199 | 4.8 | 17.7 | 0.00 | 0.00 | 0.00 | 77 | 1015.7 |
| 20260505212006 | 16 | 238 | 8.0 | 16.1 | 0.00 | 0.00 | 0.00 | 76 | 1015.7 |
| 20260505211505 | 16 | 186 | 8.0 | 17.7 | 0.00 | 0.00 | 0.00 | 77 | 1015.7 |
| 20260505211008 | 15 | 299 | 4.8 | 17.7 | 0.00 | 0.00 | 0.00 | 78 | 1015.7 |
| 20260505210507 | 15 | 323 | 6.4 | 19.3 | 0.00 | 0.00 | 0.00 | 77 | 1015.7 |
| 20260505210008 | 16 | 285 | 6.4 | 19.3 | 0.00 | 0.00 | 0.00 | 77 | 1015.7 |
| 20260505204506 | 15 | 247 | 4.8 | 17.7 | 0.00 | 0.00 | 0.00 | 78 | 1015.8 |
| 20260505204005 | 16 | 310 | 8.0 | 16.1 | 0.00 | 0.00 | 0.00 | 77 | 1015.8 |
| 20260505203505 | 16 | 288 | 6.4 | 14.5 | 0.00 | 0.00 | 0.00 | 77 | 1015.9 |
| 20260505202506 | 15 | 248 | 8.0 | 19.3 | 0.00 | 0.00 | 0.00 | 77 | 1015.8 |
| 20260505202005 | 15 | 344 | 4.8 | 17.7 | 0.00 | 0.00 | 0.00 | 77 | 1015.9 |
| 20260505201505 | 15 | 194 | 8.0 | 17.7 | 0.00 | 0.00 | 0.00 | 78 | 1015.8 |
| 20260505201005 | 16 | 252 | 6.4 | 16.1 | 0.00 | 0.00 | 0.00 | 77 | 1015.8 |
| 20260505200005 | 16 | 197 | 4.8 | 20.9 | 0.00 | 0.00 | 0.00 | 78 | 1015.8 |
| 20260505195505 | 15 | 89 | 4.8 | 16.1 | 0.00 | 0.00 | 0.00 | 77 | 1015.8 |
| 20260505194505 | 15 | 152 | 4.8 | 25.7 | 0.00 | 0.00 | 0.00 | 78 | 1015.8 |
| 20260505194004 | 15 | 203 | 8.0 | 25.7 | 0.00 | 0.00 | 0.00 | 79 | 1015.9 |
| 20260505193505 | 15 | 281 | 4.8 | 20.9 | 0.00 | 0.00 | 0.00 | 79 | 1015.8 |
| 20260505193005 | 15 | 281 | 4.8 | 20.9 | 0.00 | 0.00 | 0.00 | 78 | 1015.9 |
| 20260505192505 | 15 | 319 | 4.8 | 17.7 | 0.00 | 0.00 | 0.00 | 78 | 1015.8 |
| 20260505192005 | 15 | 135 | 4.8 | 16.1 | 0.00 | 0.00 | 0.00 | 79 | 1015.8 |
| 20260505191507 | 15 | 20 | 6.4 | 16.1 | 0.00 | 0.00 | 0.00 | 79 | 1015.8 |
| 20260505191006 | 15 | 228 | 6.4 | 14.5 | 0.00 | 0.00 | 0.00 | 79 | 1015.8 |
| 20260505190504 | 15 | 250 | 4.8 | 14.5 | 0.00 | 0.00 | 0.00 | 80 | 1015.8 |
| 20260505190006 | 15 | 281 | 4.8 | 14.5 | 0.00 | 0.00 | 0.00 | 80 | 1015.8 |
| 20260505185005 | 15 | 175 | 4.8 | 17.7 | 0.00 | 0.00 | 0.00 | 80 | 1015.7 |
| 20260505184005 | 15 | 193 | 4.8 | 14.5 | 0.00 | 0.00 | 0.00 | 79 | 1015.9 |
| 20260505183506 | 15 | 142 | 4.8 | 11.3 | 0.00 | 0.00 | 0.00 | 81 | 1015.9 |
| 20260505183006 | 15 | 89 | 3.2 | 14.5 | 0.00 | 0.00 | 0.00 | 80 | 1015.8 |
| 20260505182505 | 15 | 238 | 4.8 | 14.5 | 0.00 | 0.00 | 0.00 | 81 | 1015.8 |
| 20260505182005 | 15 | 145 | 4.8 | 12.9 | 0.00 | 0.00 | 0.00 | 81 | 1015.8 |
| 20260505181006 | 15 | 89 | 4.8 | 14.5 | 0.00 | 0.00 | 0.00 | 81 | 1015.7 |
| 20260505180505 | 15 | 142 | 3.2 | 17.7 | 0.00 | 0.00 | 0.00 | 82 | 1015.6 |
| 20260505180006 | 15 | 303 | 4.8 | 16.1 | 0.00 | 0.00 | 0.00 | 81 | 1015.6 |
| 20260505175505 | 14 | 131 | 3.2 | 12.9 | 0.00 | 0.00 | 0.00 | 82 | 1015.6 |
| 20260505175005 | 14 | 124 | 3.2 | 19.3 | 0.00 | 0.00 | 0.00 | 83 | 1015.7 |
| 20260505174506 | 14 | 324 | 4.8 | 16.1 | 0.00 | 0.00 | 0.00 | 84 | 1015.6 |
| 20260505174007 | 13 | 167 | 6.4 | 16.1 | 0.00 | 0.00 | 0.00 | 84 | 1015.6 |
| 20260505173505 | 13 | 206 | 4.8 | 14.5 | 0.00 | 0.00 | 0.00 | 84 | 1015.6 |
| 20260505173006 | 13 | 236 | 4.8 | 14.5 | 0.00 | 0.00 | 0.00 | 84 | 1015.6 |
| 20260505171506 | 13 | 223 | 3.2 | 14.5 | 0.00 | 0.00 | 0.00 | 86 | 1015.6 |
| 20260505171005 | 13 | 248 | 4.8 | 14.5 | 0.00 | 0.00 | 0.00 | 86 | 1015.6 |
| 20260505170504 | 13 | 223 | 4.8 | 14.5 | 0.00 | 0.00 | 0.00 | 86 | 1015.6 |
| 20260505170006 | 12 | 46 | 3.2 | 12.9 | 0.00 | 0.00 | 0.00 | 86 | 1015.6 |
| 20260505165505 | 12 | 269 | 4.8 | 14.5 | 0.00 | 0.00 | 0.00 | 86 | 1015.5 |
| 20260505165006 | 12 | 135 | 4.8 | 14.5 | 0.00 | 0.00 | 0.00 | 87 | 1015.6 |
| 20260505164506 | 12 | 209 | 3.2 | 11.3 | 0.00 | 0.00 | 0.00 | 86 | 1015.5 |
| 20260505164006 | 12 | 89 | 3.2 | 11.3 | 0.00 | 0.00 | 0.00 | 86 | 1015.5 |
| 20260505163504 | 12 | 331 | 4.8 | 11.3 | 0.00 | 0.00 | 0.00 | 86 | 1015.5 |
| 20260505163007 | 12 | 201 | 3.2 | 9.7 | 0.00 | 0.00 | 0.00 | 86 | 1015.5 |
| 20260505162504 | 13 | 218 | 3.2 | 14.5 | 0.00 | 0.00 | 0.00 | 85 | 1015.5 |
| 20260505162006 | 13 | 72 | 3.2 | 16.1 | 0.00 | 0.00 | 0.00 | 85 | 1015.5 |
| 20260505161505 | 13 | 193 | 6.4 | 17.7 | 0.00 | 0.00 | 0.00 | 85 | 1015.4 |
| 20260505161005 | 13 | 117 | 8.0 | 17.7 | 0.00 | 0.00 | 0.00 | 85 | 1015.4 |
| 20260505153006 | 12 | 191 | 4.8 | 19.3 | 0.00 | 0.00 | 0.00 | 86 | 1015.2 |
| 20260505152506 | 12 | 331 | 4.8 | 19.3 | 0.00 | 0.00 | 0.00 | 86 | 1015.2 |
| 20260505152006 | 12 | 223 | 4.8 | 14.5 | 0.00 | 0.00 | 0.00 | 86 | 1015.1 |
| 20260505151505 | 12 | 135 | 6.4 | 12.9 | 0.00 | 0.00 | 0.00 | 86 | 1015.1 |
| 20260505150505 | 12 | 136 | 8.0 | 22.5 | 0.00 | 0.00 | 0.00 | 87 | 1015.0 |
| 20260505125002 | 12 | 107 | 6.4 | 17.7 | 0.00 | 0.00 | 0.00 | 87 | 1013.6 |
| 20260505124505 | 12 | 133 | 4.8 | 17.7 | 0.00 | 0.00 | 0.00 | 86 | 1013.6 |
| 20260505124003 | 12 | 161 | 6.4 | 16.1 | 0.00 | 0.00 | 0.00 | 86 | 1013.5 |
| 20260505123503 | 12 | 145 | 4.8 | 17.7 | 0.00 | 0.00 | 0.00 | 86 | 1013.5 |
| 20260505123007 | 12 | 254 | 8.0 | 17.7 | 0.00 | 0.00 | 0.00 | 86 | 1013.3 |
| 20260505122502 | 12 | 124 | 4.8 | 14.5 | 0.00 | 0.00 | 0.00 | 86 | 1013.3 |
| 20260505122005 | 12 | 173 | 4.8 | 19.3 | 0.00 | 0.00 | 0.00 | 85 | 1013.2 |
| 20260505121506 | 12 | 72 | 4.8 | 19.3 | 0.00 | 0.00 | 0.00 | 85 | 1013.2 |
| 20260505121005 | 12 | 178 | 8.0 | 19.3 | 0.00 | 0.00 | 0.00 | 85 | 1013.1 |
| 20260505120504 | 12 | 133 | 8.0 | 16.1 | 0.00 | 0.00 | 0.00 | 84 | 1013.1 |
| 20260505120007 | 12 | 314 | 3.2 | 14.5 | 0.00 | 0.00 | 0.00 | 84 | 1013.0 |
| 20260505115505 | 12 | 217 | 6.4 | 19.3 | 0.00 | 0.00 | 0.00 | 83 | 1013.0 |
| 20260505115004 | 12 | 149 | 6.4 | 19.3 | 0.00 | 0.00 | 0.00 | 83 | 1013.0 |
| 20260505114505 | 12 | 218 | 3.2 | 11.3 | 0.00 | 0.00 | 0.00 | 83 | 1012.9 |
| 20260505113505 | 12 | 148 | 3.2 | 19.3 | 0.00 | 0.00 | 0.00 | 82 | 1012.8 |
| 20260505112505 | 12 | 148 | 6.4 | 12.9 | 0.00 | 0.00 | 0.00 | 82 | 1012.7 |
| 20260505112005 | 12 | 135 | 4.8 | 12.9 | 0.00 | 0.00 | 0.00 | 82 | 1012.6 |
| 20260505111506 | 12 | 157 | 4.8 | 12.9 | 0.00 | 0.00 | 0.00 | 82 | 1012.5 |
| 20260505111005 | 12 | 79 | 4.8 | 11.3 | 0.00 | 0.00 | 0.00 | 82 | 1012.5 |
| 20260505110505 | 12 | 135 | 4.8 | 11.3 | 0.00 | 0.00 | 0.00 | 82 | 1012.4 |